Find Starlink 35106

NORAD ID: 65739 Int'l Des: 2025-216 Owner: SPXS Country: US Constellation: starlink operational
LEOCIRCULAR

Current View

Loading 3D Globe...

About Starlink 35106

Starlink 35106 (NORAD 65739) is a starlink constellation satellite (v2 mini) launched Sep 25, 2025 by SPXS of US. It operates in LEO, CIRCULAR orbit with a mass of 575.00 kg.

Upcoming Passes

Passes for default location (London). Set your location on the main map for personalized predictions.

Altitude History

Loading altitude history...

Two-Line Element Set

1 65739U 25216F 26230.18806929 .00022792 00000-0 68311-3 0 9996
2 65739 53.1596 301.7624 0001002 98.2024 261.9092 15.34423955 51255
Epoch: Aug 18, 2026 • Age: 13 hours

Current Status

Altitude 467.7 km
Apogee / Perigee N/A
Velocity 7.64 km/s
Sub-Earth Point 49.96°N, 172.58°W
Launch Date Sep 25, 2025
Age 0.8 years
Type internet

Technical Details

Classification Payload
Mass 575.00 kg
Dry Mass 530.00 kg
Total Mass 575.00 kg
Length 0.30 m
Diameter 4.10 m
Span 29.00 m
Shape Box + pan
Manufacturer SPXS
Bus Type Starlink V2MO
Phase Status In Orbit
Owner/State SPXS/US

Most Searched